QPF
0.00 0.00 0.00 0.01 0.02 0.01 0.00 0.00 0.00 0.00 0.00 0.00 0.00 0.00 0.01 0.00 0.00 0.01 0.00 0.00 0.00 0.00 0.01 0.01 0.01 0.01 0.02 0.03 0.03 0.02 0.02 0.02 0.02 0.02 0.02 0.02 0.02 0.01 0.01 0.01 0.02 0.02 0.02 0.02 0.03 0.04 0.04 0.04 0.02
0.00 0.00 0.00 0.01 0.02 0.02 0.00 0.00 0.00 0.00 0.00 0.00 0.00 0.00 0.00 0.00 0.00 0.00 0.00 0.00 0.00 0.00 0.00 0.01 0.01 0.01 0.02 0.03 0.03 0.02 0.02 0.03 0.02 0.02 0.01 0.01 0.02 0.02 0.01 0.01 0.01 0.02 0.01 0.01 0.01 0.02 0.03 0.03 0.02
0.00 0.00 0.01 0.01 0.02 0.01 0.00 0.00 0.00 0.00 0.00 0.00 0.00 0.00 0.00 0.00 0.00 0.00 0.00 0.00 0.00 0.00 0.01 0.01 0.02 0.03 0.03 0.02 0.03 0.02 0.03 0.03 0.02 0.02 0.02 0.02 0.02 0.01 0.01 0.01 0.01 0.02 0.02 0.01 0.01 0.01 0.01 0.02 0.02
0.00 0.00 0.00 0.01 0.01 0.01 0.00 0.00 0.00 0.00 0.00 0.00 0.00 0.00 0.00 0.00 0.00 0.00 0.00 0.00 0.00 0.01 0.01 0.02 0.02 0.03 0.03 0.03 0.03 0.03 0.03 0.04 0.04 0.02 0.02 0.01 0.01 0.01 0.01 0.01 0.01 0.02 0.01 0.01 0.00 0.01 0.01 0.01 0.02
0.01 0.01 0.01 0.01 0.00 0.00 0.00 0.00 0.00 0.00 0.00 0.00 0.00 0.00 0.00 0.00 0.00 0.00 0.00 0.00 0.00 0.01 0.02 0.03 0.02 0.03 0.03 0.04 0.04 0.04 0.04 0.04 0.04 0.03 0.02 0.01 0.01 0.01 0.01 0.02 0.01 0.01 0.01 0.01 0.00 0.01 0.01 0.01 0.01
0.01 0.01 0.01 0.00 0.00 0.00 0.00 0.00 0.00 0.00 0.00 0.00 0.00 0.00 0.00 0.00 0.00 0.00 0.00 0.00 0.01 0.01 0.02 0.03 0.04 0.04 0.03 0.03 0.05 0.08 0.05 0.03 0.04 0.03 0.03 0.02 0.01 0.01 0.01 0.01 0.01 0.01 0.01 0.00 0.00 0.00 0.01 0.01 0.01
0.01 0.01 0.00 0.00 0.00 0.00 0.00 0.00 0.00 0.00 0.00 0.00 0.00 0.00 0.00 0.00 0.00 0.00 0.00 0.01 0.01 0.02 0.02 0.03 0.03 0.04 0.04 0.04 0.04 0.07 0.08 0.05 0.04 0.03 0.02 0.02 0.02 0.01 0.01 0.02 0.01 0.01 0.01 0.00 0.00 0.00 0.00 0.00 0.01
0.01 0.01 0.00 0.00 0.00 0.00 0.00 0.00 0.00 0.00 0.00 0.00 0.00 0.00 0.00 0.00 0.00 0.00 0.00 0.01 0.01 0.02 0.03 0.04 0.04 0.04 0.04 0.04 0.03 0.03 0.05 0.05 0.03 0.03 0.02 0.02 0.02 0.02 0.02 0.02 0.02 0.01 0.01 0.00 0.00 0.00 0.00 0.00 0.01
0.00 0.01 0.01 0.00 0.00 0.00 0.00 0.00 0.00 0.00 0.00 0.00 0.00 0.00 0.00 0.00 0.00 0.00 0.00 0.01 0.01 0.02 0.03 0.03 0.03 0.03 0.03 0.03 0.03 0.02 0.02 0.03 0.02 0.02 0.02 0.02 0.02 0.02 0.01 0.01 0.01 0.01 0.01 0.01 0.01 0.01 0.00 0.00 0.01
0.00 0.00 0.00 0.00 0.00 0.00 0.00 0.00 0.00 0.00 0.00 0.00 0.00 0.00 0.00 0.00 0.00 0.00 0.01 0.01 0.02 0.02 0.02 0.02 0.02 0.02 0.03 0.04 0.04 0.04 0.02 0.01 0.01 0.02 0.03 0.03 0.02 0.02 0.02 0.02 0.02 0.02 0.02 0.02 0.02 0.02 0.01 0.01 0.01
0.00 0.00 0.00 0.00 0.00 0.00 0.00 0.00 0.00 0.00 0.00 0.00 0.00 0.00 0.00 0.00 0.00 0.01 0.00 0.01 0.01 0.01 0.02 0.02 0.02 0.02 0.03 0.03 0.03 0.04 0.04 0.01 0.00 0.00 0.01 0.01 0.02 0.01 0.01 0.02 0.03 0.04 0.04 0.04 0.03 0.03 0.01 0.01 0.01
0.00 0.00 0.00 0.00 0.00 0.00 0.00 0.00 0.00 0.00 0.00 0.00 0.00 0.00 0.00 0.00 0.00 0.00 0.00 0.00 0.01 0.01 0.02 0.02 0.02 0.03 0.04 0.04 0.03 0.03 0.03 0.02 0.00 0.00 0.00 0.00 0.00 0.01 0.01 0.02 0.02 0.02 0.03 0.03 0.04 0.04 0.04 0.03 0.02
0.00 0.00 0.00 0.00 0.00 0.00 0.00 0.00 0.00 0.00 0.00 0.00 0.00 0.00 0.00 0.00 0.00 0.00 0.00 0.00 0.01 0.01 0.01 0.02 0.02 0.03 0.05 0.05 0.05 0.03 0.02 0.02 0.01 0.01 0.00 0.00 0.00 0.00 0.00 0.01 0.01 0.01 0.01 0.01 0.03 0.04 0.04 0.05 0.05
0.01 0.00 0.00 0.00 0.00 0.00 0.00 0.00 0.00 0.00 0.00 0.00 0.00 0.00 0.00 0.00 0.00 0.00 0.00 0.00 0.00 0.00 0.00 0.01 0.02 0.02 0.04 0.06 0.06 0.04 0.02 0.02 0.01 0.01 0.01 0.00 0.00 0.00 0.00 0.00 0.00 0.01 0.01 0.01 0.02 0.03 0.04 0.04 0.05
0.00 0.01 0.01 0.00 0.00 0.00 0.00 0.00 0.00 0.00 0.00 0.00 0.00 0.00 0.00 0.00 0.00 0.00 0.00 0.00 0.00 0.00 0.00 0.01 0.01 0.02 0.03 0.04 0.06 0.05 0.03 0.02 0.01 0.01 0.01 0.00 0.00 0.00 0.00 0.00 0.00 0.01 0.00 0.00 0.01 0.02 0.03 0.03 0.03
0.00 0.00 0.01 0.01 0.00 0.00 0.00 0.00 0.00 0.00 0.00 0.00 0.00 0.00 0.00 0.00 0.00 0.00 0.00 0.00 0.00 0.00 0.00 0.00 0.01 0.02 0.04 0.04 0.05 0.05 0.04 0.03 0.02 0.01 0.02 0.01 0.00 0.00 0.00 0.00 0.00 0.00 0.00 0.00 0.00 0.01 0.02 0.02 0.02
0.00 0.00 0.00 0.00 0.00 0.00 0.00 0.00 0.00 0.00 0.00 0.00 0.00 0.00 0.00 0.00 0.00 0.00 0.00 0.00 0.00 0.00 0.00 0.00 0.00 0.01 0.02 0.04 0.05 0.05 0.05 0.03 0.02 0.01 0.01 0.01 0.01 0.01 0.01 0.01 0.01 0.01 0.00 0.00 0.00 0.00 0.01 0.01 0.02
0.00 0.00 0.00 0.00 0.00 0.00 0.00 0.00 0.00 0.00 0.00 0.00 0.00 0.00 0.00 0.00 0.00 0.00 0.00 0.00 0.00 0.00 0.00 0.00 0.00 0.00 0.01 0.02 0.03 0.04 0.06 0.07 0.03 0.01 0.01 0.00 0.00 0.00 0.00 0.00 0.00 0.01 0.01 0.01 0.01 0.01 0.01 0.01 0.01
0.00 0.00 0.00 0.00 0.00 0.00 0.00 0.00 0.00 0.00 0.00 0.00 0.00 0.00 0.00 0.00 0.00 0.00 0.00 0.00 0.00 0.00 0.00 0.00 0.00 0.00 0.01 0.01 0.01 0.02 0.04 0.08 0.10 0.04 0.02 0.01 0.01 0.00 0.00 0.00 0.00 0.00 0.01 0.01 0.01 0.01 0.01 0.01 0.02
0.00 0.00 0.00 0.00 0.00 0.00 0.00 0.00 0.00 0.00 0.00 0.00 0.00 0.00 0.00 0.00 0.00 0.00 0.00 0.00 0.00 0.00 0.00 0.00 0.00 0.01 0.00 0.01 0.01 0.01 0.01 0.03 0.09 0.13 0.07 0.02 0.02 0.01 0.00 0.00 0.00 0.00 0.01 0.01 0.01 0.02 0.02 0.02 0.01
0.00 0.00 0.00 0.00 0.00 0.00 0.00 0.00 0.00 0.00 0.00 0.00 0.00 0.00 0.00 0.00 0.00 0.00 0.00 0.00 0.00 0.00 0.00 0.00 0.01 0.01 0.01 0.00 0.00 0.01 0.01 0.01 0.02 0.07 0.15 0.11 0.05 0.02 0.01 0.00 0.00 0.00 0.01 0.01 0.01 0.02 0.02 0.03 0.03
0.00 0.00 0.00 0.01 0.00 0.00 0.00 0.00 0.00 0.00 0.00 0.00 0.00 0.00 0.00 0.00 0.00 0.00 0.00 0.00 0.00 0.00 0.00 0.00 0.01 0.01 0.01 0.01 0.01 0.01 0.01 0.01 0.01 0.02 0.06 0.15 0.18 0.10 0.04 0.01 0.01 0.00 0.01 0.01 0.01 0.01 0.02 0.02 0.02
0.00 0.00 0.00 0.01 0.01 0.01 0.00 0.00 0.00 0.00 0.00 0.00 0.00 0.00 0.00 0.00 0.00 0.00 0.00 0.00 0.00 0.00 0.01 0.00 0.01 0.01 0.01 0.01 0.01 0.01 0.01 0.01 0.01 0.01 0.01 0.03 0.10 0.16 0.13 0.07 0.03 0.02 0.01 0.01 0.01 0.01 0.02 0.02 0.02
0.01 0.01 0.01 0.01 0.02 0.02 0.00 0.00 0.00 0.00 0.00 0.00 0.00 0.00 0.00 0.00 0.00 0.00 0.00 0.00 0.00 0.00 0.00 0.01 0.01 0.01 0.01 0.01 0.01 0.01 0.01 0.01 0.01 0.01 0.01 0.01 0.02 0.04 0.08 0.11 0.10 0.07 0.03 0.01 0.01 0.02 0.02 0.03 0.03
0.02 0.02 0.03 0.03 0.03 0.01 0.00 0.00 0.01 0.00 0.00 0.00 0.00 0.00 0.00 0.00 0.00 0.00 0.00 0.00 0.00 0.00 0.00 0.00 0.00 0.01 0.01 0.01 0.01 0.01 0.01 0.01 0.01 0.01 0.01 0.01 0.01 0.01 0.02 0.03 0.05 0.08 0.08 0.05 0.03 0.03 0.02 0.03 0.03
0.02 0.02 0.02 0.02 0.01 0.01 0.00 0.00 0.01 0.00 0.00 0.00 0.00 0.00 0.00 0.00 0.00 0.00 0.00 0.00 0.00 0.00 0.00 0.00 0.00 0.00 0.00 0.01 0.01 0.01 0.01 0.01 0.01 0.01 0.01 0.01 0.01 0.01 0.01 0.02 0.03 0.03 0.04 0.05 0.05 0.04 0.03 0.03 0.04
0.02 0.01 0.01 0.03 0.02 0.01 0.01 0.00 0.00 0.00 0.00 0.00 0.00 0.00 0.00 0.00 0.00 0.00 0.00 0.00 0.00 0.00 0.00 0.00 0.00 0.00 0.00 0.00 0.01 0.01 0.01 0.01 0.01 0.01 0.01 0.01 0.01 0.01 0.01 0.01 0.01 0.02 0.03 0.03 0.03 0.03 0.03 0.03 0.03
0.02 0.02 0.02 0.03 0.02 0.01 0.00 0.00 0.01 0.00 0.00 0.00 0.00 0.00 0.00 0.00 0.00 0.00 0.00 0.00 0.00 0.00 0.00 0.00 0.00 0.00 0.00 0.01 0.01 0.01 0.01 0.01 0.01 0.01 0.01 0.01 0.01 0.01 0.01 0.00 0.00 0.01 0.01 0.02 0.03 0.03 0.03 0.03 0.03
0.02 0.02 0.02 0.03 0.02 0.01 0.01 0.01 0.01 0.01 0.00 0.00 0.00 0.00 0.00 0.00 0.00 0.00 0.00 0.00 0.00 0.00 0.00 0.00 0.00 0.00 0.01 0.01 0.01 0.01 0.01 0.01 0.01 0.01 0.01 0.01 0.01 0.01 0.00 0.00 0.00 0.00 0.00 0.01 0.01 0.01 0.01 0.02 0.02
0.01 0.01 0.02 0.04 0.03 0.02 0.01 0.01 0.01 0.00 0.00 0.00 0.00 0.00 0.00 0.00 0.00 0.00 0.00 0.00 0.00 0.00 0.00 0.00 0.00 0.00 0.00 0.00 0.00 0.00 0.01 0.01 0.01 0.01 0.01 0.01 0.01 0.01 0.00 0.00 0.00 0.00 0.00 0.00 0.00 0.00 0.00 0.01 0.01
MSLP
1010.01 1010.24 1010.39 1010.42 1010.26 1009.92 1009.40 1008.76 1008.05 1007.39 1006.85 1006.51 1006.41 1006.59 1007.01 1007.63 1008.38 1009.16 1009.91 1010.55 1011.05 1011.42 1011.67 1011.83 1011.96 1012.08 1012.22 1012.38 1012.56 1012.72 1012.85 1012.93 1012.97 1012.96 1012.93 1012.89 1012.86 1012.84 1012.83 1012.80 1012.76 1012.69 1012.59 1012.48 1012.38 1012.32 1012.32 1012.41 1012.57
1010.21 1010.36 1010.40 1010.26 1009.94 1009.43 1008.80 1008.10 1007.43 1006.87 1006.50 1006.37 1006.50 1006.86 1007.41 1008.09 1008.83 1009.54 1010.17 1010.70 1011.10 1011.40 1011.63 1011.82 1012.00 1012.20 1012.42 1012.66 1012.89 1013.09 1013.24 1013.34 1013.39 1013.40 1013.40 1013.39 1013.39 1013.38 1013.37 1013.33 1013.25 1013.13 1012.97 1012.80 1012.64 1012.52 1012.48 1012.52 1012.66
1010.39 1010.45 1010.34 1010.04 1009.56 1008.92 1008.20 1007.49 1006.88 1006.45 1006.26 1006.33 1006.65 1007.16 1007.81 1008.52 1009.22 1009.84 1010.37 1010.79 1011.11 1011.38 1011.61 1011.84 1012.10 1012.38 1012.68 1012.98 1013.26 1013.48 1013.65 1013.75 1013.80 1013.83 1013.83 1013.84 1013.85 1013.85 1013.83 1013.78 1013.67 1013.51 1013.30 1013.08 1012.87 1012.70 1012.61 1012.62 1012.73
1010.50 1010.46 1010.22 1009.78 1009.17 1008.44 1007.67 1006.98 1006.45 1006.16 1006.14 1006.38 1006.84 1007.46 1008.16 1008.86 1009.50 1010.04 1010.48 1010.82 1011.09 1011.35 1011.61 1011.91 1012.25 1012.62 1013.00 1013.35 1013.65 1013.89 1014.05 1014.15 1014.19 1014.20 1014.21 1014.22 1014.23 1014.24 1014.21 1014.14 1014.01 1013.82 1013.58 1013.32 1013.06 1012.86 1012.73 1012.71 1012.79
1010.51 1010.38 1010.04 1009.50 1008.80 1008.02 1007.26 1006.62 1006.19 1006.02 1006.13 1006.49 1007.05 1007.72 1008.42 1009.08 1009.65 1010.12 1010.49 1010.78 1011.05 1011.34 1011.66 1012.04 1012.46 1012.90 1013.34 1013.73 1014.04 1014.27 1014.42 1014.49 1014.51 1014.51 1014.51 1014.52 1014.53 1014.54 1014.51 1014.43 1014.29 1014.08 1013.81 1013.52 1013.24 1012.99 1012.83 1012.77 1012.83
1010.42 1010.22 1009.81 1009.22 1008.50 1007.73 1007.02 1006.45 1006.11 1006.05 1006.25 1006.68 1007.26 1007.92 1008.58 1009.18 1009.69 1010.09 1010.42 1010.72 1011.01 1011.35 1011.75 1012.20 1012.70 1013.20 1013.68 1014.08 1014.39 1014.60 1014.72 1014.77 1014.77 1014.76 1014.75 1014.76 1014.77 1014.78 1014.75 1014.67 1014.52 1014.29 1014.01 1013.70 1013.39 1013.12 1012.92 1012.82 1012.85
1010.24 1010.01 1009.58 1008.99 1008.29 1007.58 1006.95 1006.47 1006.22 1006.23 1006.48 1006.91 1007.47 1008.08 1008.66 1009.19 1009.63 1010.00 1010.32 1010.64 1010.99 1011.40 1011.87 1012.40 1012.95 1013.49 1013.97 1014.37 1014.67 1014.86 1014.95 1014.98 1014.98 1014.96 1014.96 1014.97 1014.98 1014.99 1014.96 1014.87 1014.72 1014.48 1014.19 1013.86 1013.53 1013.23 1013.00 1012.86 1012.85
1010.03 1009.78 1009.36 1008.82 1008.19 1007.57 1007.04 1006.66 1006.49 1006.54 1006.78 1007.18 1007.67 1008.18 1008.68 1009.13 1009.52 1009.87 1010.21 1010.57 1010.98 1011.47 1012.01 1012.59 1013.17 1013.73 1014.21 1014.59 1014.86 1015.04 1015.12 1015.15 1015.15 1015.15 1015.16 1015.17 1015.19 1015.20 1015.16 1015.07 1014.91 1014.67 1014.36 1014.02 1013.66 1013.34 1013.07 1012.91 1012.86
1009.82 1009.57 1009.20 1008.72 1008.19 1007.68 1007.25 1006.96 1006.84 1006.90 1007.11 1007.43 1007.82 1008.24 1008.64 1009.01 1009.36 1009.71 1010.09 1010.51 1010.99 1011.54 1012.13 1012.75 1013.34 1013.89 1014.35 1014.72 1014.98 1015.15 1015.25 1015.30 1015.33 1015.35 1015.38 1015.41 1015.43 1015.43 1015.39 1015.28 1015.10 1014.85 1014.53 1014.17 1013.80 1013.45 1013.17 1012.97 1012.89
1009.64 1009.41 1009.07 1008.67 1008.24 1007.84 1007.51 1007.29 1007.20 1007.24 1007.39 1007.62 1007.90 1008.20 1008.51 1008.82 1009.15 1009.52 1009.94 1010.42 1010.97 1011.57 1012.20 1012.83 1013.43 1013.96 1014.40 1014.76 1015.03 1015.22 1015.35 1015.44 1015.52 1015.58 1015.64 1015.68 1015.71 1015.70 1015.64 1015.51 1015.31 1015.04 1014.71 1014.34 1013.95 1013.59 1013.28 1013.07 1012.97
1009.50 1009.27 1008.97 1008.63 1008.29 1007.98 1007.72 1007.55 1007.47 1007.47 1007.54 1007.67 1007.84 1008.03 1008.26 1008.54 1008.86 1009.26 1009.73 1010.27 1010.88 1011.53 1012.18 1012.82 1013.40 1013.92 1014.36 1014.72 1015.02 1015.25 1015.44 1015.59 1015.73 1015.84 1015.93 1016.00 1016.02 1016.00 1015.92 1015.76 1015.54 1015.25 1014.91 1014.53 1014.13 1013.76 1013.45 1013.22 1013.10
1009.37 1009.13 1008.86 1008.57 1008.29 1008.04 1007.84 1007.68 1007.58 1007.52 1007.51 1007.53 1007.59 1007.70 1007.87 1008.11 1008.45 1008.88 1009.41 1010.01 1010.67 1011.36 1012.03 1012.67 1013.26 1013.78 1014.23 1014.62 1014.96 1015.26 1015.52 1015.75 1015.95 1016.12 1016.24 1016.32 1016.35 1016.31 1016.20 1016.03 1015.78 1015.48 1015.13 1014.74 1014.35 1013.98 1013.66 1013.42 1013.29
1009.24 1008.98 1008.71 1008.45 1008.21 1008.00 1007.81 1007.64 1007.49 1007.36 1007.25 1007.17 1007.13 1007.16 1007.29 1007.53 1007.88 1008.36 1008.94 1009.61 1010.32 1011.04 1011.74 1012.40 1013.01 1013.55 1014.04 1014.48 1014.88 1015.25 1015.59 1015.90 1016.16 1016.38 1016.53 1016.63 1016.65 1016.60 1016.48 1016.29 1016.04 1015.73 1015.38 1015.01 1014.62 1014.25 1013.92 1013.68 1013.53
1009.07 1008.79 1008.53 1008.28 1008.05 1007.84 1007.64 1007.43 1007.21 1006.99 1006.78 1006.60 1006.48 1006.45 1006.54 1006.78 1007.16 1007.69 1008.33 1009.05 1009.81 1010.57 1011.32 1012.01 1012.66 1013.24 1013.79 1014.30 1014.77 1015.22 1015.64 1016.01 1016.33 1016.58 1016.76 1016.86 1016.89 1016.84 1016.72 1016.54 1016.30 1016.01 1015.68 1015.32 1014.94 1014.58 1014.25 1013.98 1013.80
1008.89 1008.59 1008.33 1008.09 1007.86 1007.63 1007.39 1007.12 1006.81 1006.49 1006.17 1005.89 1005.68 1005.60 1005.68 1005.92 1006.33 1006.90 1007.60 1008.37 1009.19 1010.00 1010.80 1011.55 1012.25 1012.90 1013.52 1014.10 1014.65 1015.17 1015.65 1016.07 1016.42 1016.70 1016.90 1017.01 1017.05 1017.02 1016.92 1016.77 1016.57 1016.32 1016.02 1015.69 1015.33 1014.97 1014.62 1014.33 1014.09
1008.70 1008.42 1008.17 1007.94 1007.71 1007.45 1007.15 1006.79 1006.38 1005.94 1005.50 1005.12 1004.85 1004.72 1004.77 1005.03 1005.47 1006.08 1006.82 1007.65 1008.52 1009.39 1010.24 1011.06 1011.83 1012.56 1013.25 1013.90 1014.52 1015.09 1015.61 1016.06 1016.43 1016.72 1016.93 1017.06 1017.12 1017.13 1017.08 1016.98 1016.84 1016.64 1016.39 1016.10 1015.77 1015.41 1015.05 1014.71 1014.42
1008.57 1008.33 1008.12 1007.91 1007.67 1007.37 1007.00 1006.53 1006.00 1005.43 1004.88 1004.40 1004.06 1003.89 1003.93 1004.20 1004.67 1005.32 1006.10 1006.97 1007.89 1008.81 1009.71 1010.59 1011.43 1012.23 1012.99 1013.71 1014.37 1014.98 1015.52 1015.98 1016.35 1016.64 1016.86 1017.01 1017.11 1017.16 1017.18 1017.16 1017.09 1016.97 1016.79 1016.55 1016.25 1015.90 1015.53 1015.15 1014.79
1008.52 1008.37 1008.23 1008.05 1007.81 1007.46 1007.00 1006.41 1005.75 1005.04 1004.37 1003.80 1003.40 1003.20 1003.24 1003.52 1004.01 1004.70 1005.51 1006.41 1007.36 1008.32 1009.26 1010.19 1011.08 1011.93 1012.75 1013.51 1014.21 1014.83 1015.37 1015.82 1016.18 1016.47 1016.70 1016.88 1017.02 1017.14 1017.24 1017.30 1017.33 1017.29 1017.18 1017.00 1016.74 1016.42 1016.04 1015.64 1015.23
1008.60 1008.57 1008.51 1008.38 1008.13 1007.72 1007.16 1006.45 1005.64 1004.80 1004.01 1003.36 1002.91 1002.69 1002.74 1003.05 1003.58 1004.29 1005.13 1006.04 1007.00 1007.97 1008.93 1009.87 1010.79 1011.67 1012.51 1013.29 1014.00 1014.63 1015.16 1015.60 1015.95 1016.24 1016.48 1016.69 1016.89 1017.07 1017.25 1017.41 1017.52 1017.57 1017.54 1017.42 1017.22 1016.93 1016.58 1016.17 1015.74
1008.82 1008.91 1008.95 1008.86 1008.60 1008.12 1007.45 1006.60 1005.65 1004.68 1003.79 1003.08 1002.60 1002.39 1002.47 1002.81 1003.38 1004.11 1004.96 1005.87 1006.82 1007.76 1008.70 1009.64 1010.54 1011.42 1012.26 1013.04 1013.75 1014.36 1014.89 1015.31 1015.66 1015.95 1016.21 1016.46 1016.71 1016.96 1017.21 1017.45 1017.64 1017.77 1017.82 1017.78 1017.64 1017.41 1017.11 1016.74 1016.33
1009.15 1009.38 1009.50 1009.44 1009.14 1008.58 1007.78 1006.80 1005.71 1004.63 1003.67 1002.91 1002.44 1002.27 1002.40 1002.80 1003.41 1004.16 1005.01 1005.90 1006.79 1007.69 1008.57 1009.45 1010.32 1011.16 1011.98 1012.74 1013.43 1014.03 1014.54 1014.97 1015.32 1015.62 1015.91 1016.19 1016.49 1016.80 1017.11 1017.41 1017.67 1017.86 1017.98 1018.01 1017.96 1017.82 1017.60 1017.31 1016.96
1009.57 1009.90 1010.08 1010.02 1009.67 1009.01 1008.09 1006.97 1005.76 1004.59 1003.58 1002.83 1002.39 1002.29 1002.49 1002.96 1003.62 1004.40 1005.22 1006.06 1006.89 1007.70 1008.49 1009.28 1010.08 1010.86 1011.63 1012.36 1013.03 1013.63 1014.13 1014.56 1014.93 1015.26 1015.57 1015.89 1016.23 1016.58 1016.93 1017.27 1017.57 1017.82 1018.00 1018.11 1018.14 1018.10 1017.99 1017.82 1017.58
1010.04 1010.44 1010.63 1010.54 1010.11 1009.34 1008.29 1007.05 1005.75 1004.52 1003.51 1002.79 1002.42 1002.41 1002.71 1003.25 1003.96 1004.74 1005.54 1006.32 1007.05 1007.75 1008.43 1009.11 1009.81 1010.51 1011.22 1011.91 1012.56 1013.15 1013.66 1014.11 1014.49 1014.85 1015.20 1015.55 1015.92 1016.29 1016.67 1017.03 1017.36 1017.64 1017.87 1018.04 1018.16 1018.23 1018.25 1018.21 1018.12
1010.52 1010.93 1011.10 1010.95 1010.42 1009.55 1008.38 1007.05 1005.68 1004.44 1003.45 1002.80 1002.52 1002.61 1003.01 1003.63 1004.37 1005.16 1005.91 1006.61 1007.23 1007.81 1008.36 1008.92 1009.50 1010.12 1010.77 1011.41 1012.04 1012.62 1013.14 1013.60 1014.02 1014.40 1014.78 1015.15 1015.54 1015.93 1016.32 1016.69 1017.03 1017.33 1017.59 1017.82 1018.01 1018.19 1018.34 1018.45 1018.51
1011.01 1011.39 1011.49 1011.25 1010.62 1009.64 1008.39 1006.99 1005.60 1004.37 1003.44 1002.88 1002.70 1002.90 1003.39 1004.07 1004.84 1005.60 1006.30 1006.90 1007.41 1007.85 1008.28 1008.71 1009.19 1009.73 1010.30 1010.90 1011.50 1012.07 1012.59 1013.07 1013.50 1013.91 1014.30 1014.70 1015.10 1015.50 1015.90 1016.27 1016.61 1016.92 1017.20 1017.47 1017.73 1018.00 1018.26 1018.51 1018.70
1011.49 1011.79 1011.81 1011.46 1010.74 1009.67 1008.36 1006.94 1005.56 1004.39 1003.54 1003.07 1003.01 1003.30 1003.85 1004.57 1005.34 1006.06 1006.68 1007.19 1007.58 1007.90 1008.21 1008.53 1008.92 1009.37 1009.88 1010.44 1011.00 1011.54 1012.05 1012.53 1012.96 1013.38 1013.78 1014.19 1014.60 1015.01 1015.40 1015.77 1016.12 1016.43 1016.73 1017.02 1017.33 1017.67 1018.02 1018.36 1018.68
1011.94 1012.14 1012.06 1011.62 1010.81 1009.69 1008.36 1006.96 1005.63 1004.54 1003.79 1003.42 1003.45 1003.81 1004.40 1005.12 1005.86 1006.52 1007.06 1007.46 1007.75 1007.97 1008.18 1008.41 1008.72 1009.10 1009.56 1010.06 1010.58 1011.08 1011.56 1012.00 1012.42 1012.82 1013.22 1013.63 1014.04 1014.46 1014.86 1015.24 1015.59 1015.91 1016.21 1016.53 1016.86 1017.23 1017.63 1018.04 1018.44
1012.33 1012.44 1012.26 1011.74 1010.88 1009.74 1008.43 1007.08 1005.84 1004.85 1004.20 1003.93 1004.02 1004.42 1005.02 1005.72 1006.40 1006.98 1007.43 1007.74 1007.94 1008.08 1008.21 1008.39 1008.64 1008.97 1009.37 1009.81 1010.27 1010.72 1011.14 1011.53 1011.90 1012.27 1012.65 1013.04 1013.46 1013.88 1014.29 1014.68 1015.04 1015.37 1015.69 1016.00 1016.34 1016.71 1017.13 1017.57 1018.01
1012.63 1012.64 1012.38 1011.81 1010.93 1009.81 1008.56 1007.30 1006.16 1005.28 1004.74 1004.55 1004.69 1005.10 1005.67 1006.31 1006.92 1007.42 1007.78 1008.01 1008.15 1008.24 1008.33 1008.47 1008.69 1008.98 1009.34 1009.72 1010.11 1010.47 1010.81 1011.12 1011.42 1011.74 1012.07 1012.45 1012.85 1013.28 1013.71 1014.12 1014.50 1014.84 1015.16 1015.47 1015.79 1016.15 1016.55 1016.98 1017.42
1012.76 1012.70 1012.39 1011.79 1010.92 1009.86 1008.69 1007.54 1006.53 1005.77 1005.32 1005.19 1005.36 1005.76 1006.29 1006.86 1007.38 1007.80 1008.09 1008.26 1008.36 1008.43 1008.51 1008.65 1008.85 1009.12 1009.42 1009.74 1010.05 1010.32 1010.56 1010.78 1010.99 1011.23 1011.51 1011.85 1012.25 1012.68 1013.12 1013.56 1013.95 1014.31 1014.62 1014.92 1015.22 1015.55 1015.92 1016.32 1016.74
Thickness
5703 5707 5710 5704 5688 5682 5688 5710 5725 5724 5725 5727 5729 5727 5720 5711 5709 5698 5709 5719 5720 5718 5715 5713 5712 5711 5711 5710 5709 5709 5708 5708 5707 5707 5707 5707 5707 5707 5707 5707 5707 5707 5707 5708 5708 5708 5708 5708 5708
5699 5705 5701 5691 5677 5673 5690 5709 5714 5717 5720 5724 5724 5722 5716 5709 5711 5707 5708 5713 5714 5713 5710 5708 5707 5707 5706 5705 5704 5704 5703 5703 5702 5702 5702 5702 5702 5702 5702 5702 5702 5702 5702 5703 5703 5703 5703 5703 5703
5695 5699 5688 5681 5676 5679 5692 5707 5710 5712 5717 5717 5713 5714 5709 5702 5706 5704 5705 5709 5709 5707 5705 5703 5702 5701 5701 5700 5699 5699 5698 5698 5697 5697 5697 5696 5697 5697 5696 5697 5697 5697 5697 5698 5698 5698 5698 5698 5698
5689 5685 5682 5674 5675 5689 5697 5704 5707 5705 5708 5711 5707 5699 5699 5702 5703 5701 5702 5703 5702 5701 5699 5697 5696 5696 5695 5695 5694 5694 5693 5692 5692 5692 5691 5691 5691 5691 5691 5691 5692 5692 5692 5692 5692 5693 5693 5693 5693
5681 5674 5666 5665 5675 5688 5697 5704 5704 5698 5698 5702 5701 5691 5686 5694 5698 5697 5697 5697 5696 5694 5693 5691 5690 5689 5689 5688 5688 5688 5687 5687 5686 5686 5686 5685 5685 5685 5685 5686 5686 5686 5686 5687 5687 5687 5687 5688 5688
5668 5668 5658 5659 5673 5685 5693 5699 5698 5692 5693 5696 5694 5685 5679 5686 5689 5689 5690 5690 5690 5688 5686 5684 5683 5683 5683 5682 5682 5682 5682 5681 5680 5680 5680 5680 5679 5679 5679 5679 5679 5680 5680 5680 5681 5681 5682 5682 5682
5658 5657 5656 5663 5669 5676 5686 5693 5688 5685 5684 5686 5690 5679 5674 5677 5682 5683 5684 5683 5682 5680 5678 5677 5676 5676 5675 5675 5676 5675 5675 5675 5674 5674 5674 5673 5673 5673 5673 5673 5673 5673 5674 5674 5674 5675 5675 5676 5676
5658 5653 5655 5659 5662 5668 5679 5683 5682 5678 5676 5684 5684 5673 5667 5670 5676 5676 5676 5675 5674 5673 5671 5670 5669 5669 5668 5668 5668 5669 5668 5668 5668 5667 5667 5667 5667 5667 5667 5667 5666 5667 5667 5667 5668 5668 5668 5669 5669
5654 5641 5644 5654 5658 5663 5670 5669 5671 5674 5669 5671 5671 5667 5667 5668 5668 5667 5665 5665 5665 5664 5664 5663 5663 5662 5662 5662 5662 5661 5661 5661 5661 5661 5660 5660 5660 5660 5660 5660 5660 5660 5660 5661 5661 5661 5662 5662 5663
5641 5632 5643 5654 5658 5658 5661 5660 5660 5659 5656 5656 5657 5658 5660 5659 5658 5656 5656 5655 5655 5655 5656 5656 5656 5656 5656 5656 5655 5654 5654 5654 5654 5654 5654 5654 5654 5654 5654 5653 5653 5653 5653 5654 5654 5654 5655 5655 5656
5637 5633 5642 5648 5652 5652 5650 5651 5653 5649 5645 5649 5649 5649 5650 5649 5649 5649 5649 5649 5649 5649 5649 5649 5649 5649 5649 5649 5649 5648 5648 5647 5647 5647 5647 5647 5646 5647 5647 5647 5647 5646 5646 5646 5646 5647 5647 5648 5649
5631 5634 5638 5639 5642 5641 5640 5642 5641 5640 5642 5647 5648 5646 5644 5642 5641 5641 5642 5642 5642 5642 5641 5642 5642 5641 5641 5641 5641 5641 5641 5640 5641 5640 5640 5640 5640 5639 5639 5639 5639 5639 5639 5639 5639 5640 5640 5640 5641
5622 5624 5630 5633 5633 5633 5633 5631 5631 5633 5638 5641 5641 5639 5636 5636 5635 5635 5636 5636 5636 5634 5634 5634 5634 5634 5634 5634 5633 5633 5633 5633 5633 5633 5632 5633 5632 5632 5632 5631 5632 5632 5632 5632 5632 5632 5632 5632 5633
5617 5617 5620 5623 5624 5625 5623 5624 5624 5629 5632 5632 5631 5630 5630 5629 5630 5629 5629 5628 5628 5628 5627 5627 5627 5627 5626 5626 5626 5626 5626 5626 5625 5625 5625 5625 5625 5624 5624 5623 5623 5623 5624 5624 5624 5624 5625 5625 5625
5610 5605 5609 5614 5617 5618 5615 5613 5619 5626 5626 5624 5623 5623 5624 5624 5624 5623 5623 5622 5622 5621 5620 5619 5620 5619 5619 5618 5618 5618 5618 5618 5618 5617 5617 5617 5617 5616 5616 5615 5615 5615 5615 5616 5616 5616 5616 5616 5617
5600 5596 5594 5609 5612 5610 5602 5601 5617 5623 5619 5617 5617 5617 5617 5618 5619 5619 5618 5616 5615 5614 5613 5612 5613 5612 5612 5611 5611 5611 5611 5610 5610 5610 5609 5609 5608 5608 5607 5607 5606 5606 5607 5607 5607 5606 5607 5607 5607
5590 5587 5592 5599 5606 5604 5598 5598 5610 5615 5613 5611 5611 5611 5612 5612 5613 5613 5612 5610 5608 5607 5606 5604 5605 5605 5605 5604 5604 5604 5603 5603 5602 5602 5601 5601 5600 5600 5599 5598 5598 5598 5598 5597 5597 5597 5597 5596 5596
5584 5587 5592 5593 5598 5596 5591 5594 5601 5606 5606 5605 5606 5607 5607 5607 5608 5607 5606 5604 5602 5600 5599 5597 5597 5597 5597 5597 5596 5596 5595 5595 5594 5594 5593 5593 5592 5591 5591 5590 5589 5589 5588 5587 5587 5587 5587 5586 5586
5587 5585 5584 5588 5593 5587 5584 5588 5595 5600 5600 5600 5601 5601 5602 5602 5603 5602 5600 5598 5595 5593 5592 5591 5589 5589 5589 5588 5588 5587 5586 5586 5585 5585 5584 5584 5583 5582 5582 5581 5581 5580 5579 5578 5578 5577 5576 5575 5575
5578 5575 5576 5579 5583 5580 5577 5582 5591 5596 5598 5598 5598 5597 5597 5595 5594 5595 5594 5591 5589 5586 5585 5584 5583 5582 5581 5581 5581 5580 5579 5578 5578 5576 5575 5575 5575 5573 5573 5572 5572 5571 5570 5569 5568 5567 5565 5564 5564
5569 5567 5569 5567 5569 5571 5566 5571 5584 5595 5598 5597 5597 5596 5594 5591 5589 5588 5587 5584 5581 5579 5578 5578 5576 5575 5574 5573 5572 5572 5570 5569 5568 5567 5566 5566 5566 5564 5563 5563 5562 5561 5560 5559 5559 5558 5556 5554 5553
5558 5567 5565 5559 5551 5549 5559 5548 5579 5588 5589 5591 5590 5589 5588 5587 5584 5582 5580 5577 5574 5572 5571 5570 5569 5568 5567 5565 5564 5563 5562 5561 5560 5559 5558 5557 5556 5555 5554 5553 5552 5551 5550 5550 5549 5548 5547 5545 5543
5555 5559 5555 5550 5543 5540 5548 5542 5566 5584 5582 5584 5584 5584 5583 5581 5579 5576 5574 5571 5568 5565 5563 5563 5562 5561 5560 5558 5557 5556 5555 5554 5552 5551 5549 5548 5547 5546 5545 5544 5543 5542 5541 5540 5539 5538 5537 5536 5534
5548 5546 5543 5539 5532 5525 5547 5543 5559 5576 5581 5583 5582 5580 5577 5575 5572 5569 5567 5564 5560 5558 5556 5555 5554 5553 5552 5551 5549 5548 5547 5545 5544 5542 5540 5539 5538 5537 5536 5535 5534 5533 5532 5531 5530 5529 5527 5526 5525
5535 5528 5520 5518 5515 5529 5554 5549 5560 5582 5584 5582 5578 5573 5571 5568 5564 5561 5558 5556 5553 5551 5549 5548 5547 5546 5545 5544 5542 5541 5539 5538 5536 5534 5533 5531 5530 5529 5528 5527 5525 5524 5523 5522 5521 5519 5518 5517 5516
5525 5528 5518 5518 5524 5536 5543 5542 5561 5576 5575 5575 5571 5567 5563 5559 5556 5553 5551 5548 5546 5544 5542 5540 5539 5538 5537 5536 5534 5533 5532 5530 5528 5526 5525 5524 5522 5522 5520 5519 5517 5516 5514 5513 5511 5509 5508 5507 5506
5520 5519 5527 5519 5518 5520 5535 5552 5563 5564 5563 5563 5561 5558 5553 5550 5548 5546 5543 5541 5539 5537 5535 5533 5532 5530 5529 5527 5526 5525 5523 5522 5520 5518 5517 5516 5515 5514 5513 5511 5509 5507 5505 5503 5501 5499 5499 5497 5496
5514 5518 5510 5507 5508 5517 5537 5546 5548 5551 5551 5553 5551 5548 5545 5543 5540 5538 5535 5533 5532 5530 5528 5526 5524 5523 5521 5519 5518 5518 5515 5514 5512 5510 5508 5508 5507 5506 5504 5503 5501 5498 5496 5494 5492 5490 5489 5488 5487
5504 5504 5505 5505 5509 5510 5518 5536 5553 5550 5548 5545 5543 5541 5538 5535 5532 5530 5527 5526 5524 5522 5520 5518 5516 5515 5513 5511 5510 5509 5507 5506 5504 5502 5500 5500 5499 5497 5496 5494 5493 5490 5488 5486 5483 5482 5480 5479 5477
5505 5504 5499 5493 5499 5505 5507 5522 5547 5545 5543 5540 5536 5533 5530 5527 5525 5522 5520 5518 5516 5513 5512 5510 5508 5506 5505 5504 5502 5500 5499 5498 5496 5494 5493 5491 5490 5489 5487 5486 5484 5483 5480 5478 5476 5474 5472 5470 5469